Flag for India Weather past 2 weeks in Pratapgarh, Uttar Pradesh, India

Now
68 °F

Fog.


Feels Like: 68 °F
Forecast: 68 / 85 °F
Wind: No wind

Location: Lucknow / Amausi

Current Time: Oct 26, 2014 at 5:25:42 AM

Latest Report: Oct 26, 2014 at 4:00 AM


Visibility: 2 mi

Pressure: 29.92 "Hg

Humidity: 88%

Dew point: 64 °F

Location of PratapgarhLocation

Historic Weather in Pratapgarh — Graph

°F

Pratapgarh temperature yesterday

Maximum temperature yesterday: 86 °F (at 11:00 AM)
Minimum temperature yesterday: 66 °F (at 5:30 AM)
Average temperature yesterday: 77 °F

Past Weeks' High & Low Weather Summary

 TemperatureHumidityPressure
High93 °F (Oct 11, 1:00 PM)100% (Oct 14, 6:00 AM)30.07 "Hg (Oct 14, 6:00 AM)
Low64 °F (Oct 18, 6:00 AM)32% (Oct 12, 1:30 PM)29.56 "Hg (Oct 14, 1:00 PM)
Average78 °F73%29.88 "Hg
* Reported Oct 11 4:00 AM — Oct 26 4:00 AM, Pratapgarh, Weather by CustomWeather, © 2014

Note: Actual official high and low records may vary slightly from our data, if they occured in-between our weather recording intervals... More about our weather records

Advertising

Pratapgarh weather history for previous 24 hours

 ConditionsComfort  
Time TempWeatherWind HumidityBarometerVisibility
4:00 AM
Oct 26
68 °FFog.No wind88%29.92 "Hg1 mi
3:00 AM68 °FHaze.No wind88%29.92 "Hg2 mi
2:00 AM68 °FHaze.No wind88%29.92 "Hg2 mi
1:00 AM70 °FHaze.No wind88%29.92 "Hg2 mi
12:00 AM72 °FHaze.No wind83%29.95 "Hg2 mi
11:00 PM
Oct 25
72 °FHaze.No wind83%29.95 "Hg2 mi
10:00 PM73 °FHaze.No wind83%29.95 "Hg2 mi
9:00 PM73 °FHaze.No wind83%29.95 "Hg2 mi
8:30 PM75 °FHaze.No wind78%29.95 "Hg2 mi
8:00 PM77 °FHaze.No wind69%29.95 "Hg2 mi
7:30 PM77 °FHaze.No wind69%29.92 "Hg2 mi
7:00 PM79 °FHaze.No wind65%29.92 "Hg2 mi
6:30 PM79 °FHaze.No wind70%29.89 "Hg2 mi
5:30 PM82 °FHaze.No wind58%29.86 "Hg2 mi
5:00 PM84 °FHaze.2 mph55%29.86 "Hg3 mi
4:30 PM86 °FHaze.6 mph52%29.86 "Hg3 mi
4:00 PM86 °FHaze.5 mph49%29.86 "Hg3 mi
3:30 PM86 °FHaze.6 mph49%29.86 "Hg3 mi
3:00 PM86 °FHaze.6 mph49%29.86 "Hg3 mi
2:30 PM86 °FHaze.5 mph49%29.86 "Hg3 mi
2:00 PM86 °FHaze.5 mph49%29.86 "Hg3 mi
1:30 PM86 °FHaze.6 mph49%29.86 "Hg3 mi
1:00 PM86 °FHaze.6 mph49%29.89 "Hg3 mi
12:00 PM86 °FHaze.6 mph49%29.92 "Hg2 mi
11:30 AM86 °FHaze.6 mph49%29.92 "Hg2 mi
11:00 AM86 °FHaze.5 mph52%29.95 "Hg2 mi
10:30 AM84 °FHaze.3 mph55%29.95 "Hg2 mi
9:30 AM79 °FHaze.3 mph70%29.95 "Hg1 mi
9:00 AM77 °FHaze.No wind69%29.95 "Hg1 mi
8:30 AM75 °FHaze.No wind74%29.95 "Hg1 mi
8:00 AM70 °FFog.No wind88%29.95 "Hg1 mi
7:30 AM68 °FFog.No wind88%29.92 "Hg1 mi
7:00 AM66 °FFog.No wind94%29.92 "Hg1 mi
6:30 AM66 °FFog.No wind94%29.89 "Hg1 mi
6:00 AM66 °FFog.No wind94%29.89 "Hg1 mi
5:30 AM66 °FFog.No wind94%29.89 "Hg2 mi
5:00 AM68 °FFog.No wind88%29.86 "Hg2 mi
Weather by CustomWeather, © 2014

See weather overviewHow to use our weather pages